Regional Weather Roundup
Issued by NWS

Home | Current Version | Previous Version | Graphics & Text | Print | Product List | Glossary On
Versions: 1 2 3 4 5 6 7 8 9 10 11 12 13 14 15 16 17 18 19 20 21 22 23 24 25 26 27 28 29 30 31 32 33 34 35 36 37 38 39 40 41 42 43 44 45 46 47 48 49 50
000
ASUS43 KLMK 282210
RWRKY
KENTUCKY REGIONAL WEATHER ROUNDUP
NATIONAL WEATHER SERVICE LOUISVILLE KY
600 PM EDT TUE JUL 28 2015

NOTE "FAIR" INDICATES FEW OR NO CLOUDS BELOW 12,000 FEET
WITH NO SIGNIFICANT WEATHER AND/OR OBSTRUCTIONS TO VISIBILITY.

KYZ001>023-026-027-061>063-070>075-282300-
WESTERN AND SOUTH CENTRAL KENTUCKY

CITY           SKY/WX    TMP DP  RH WIND       PRES   REMARKS
PADUCAH        SUNNY     93  78  61 W8        29.92F HX 108
HENDERSON      MOSUNNY  N/A N/A N/A N6        29.89F
OWENSBORO      MOSUNNY   92  78  63 CALM      29.92F HX 107
HOPKINSVILLE   MOSUNNY   92  77  61 SW6       29.94F HX 106
BOWLING GREEN  MOSUNNY   78  73  84 SW7       29.97S
GLASGOW        CLOUDY   N/A N/A N/A CALM      29.98S
$$

KYZ024-025-028>034-038-045-046-053-282300-
NORTH CENTRAL KENTUCKY

CITY           SKY/WX    TMP DP  RH WIND       PRES   REMARKS
LOUISVILLE/SDF PTSUNNY   89  73  59 W18       29.93R HX  97
LOUISVILLE/LOU PTSUNNY   92  73  53 NW6       29.94R HX 100
FORT KNOX      MOSUNNY   91  77  64 VRB3      29.94S HX 104
$$

KYZ035>037-039>044-047>052-055>060-089>105-282300-
NORTHEAST KENTUCKY

CITY           SKY/WX    TMP DP  RH WIND       PRES   REMARKS
LEXINGTON      LGT RAIN  76  68  76 VRB3      29.98S
COVINGTON      MOSUNNY   91  71  51 NW8       29.96S HX  97
FRANKFORT      LGT RAIN  77  72  84 VRB3      29.96F
$$

KYZ054-064>069-076>088-106>120-282300-
SOUTHEAST KENTUCKY

CITY           SKY/WX    TMP DP  RH WIND       PRES   REMARKS
JACKSON        CLOUDY    82  72  71 NW7       30.00S
LONDON         PTSUNNY   83  73  72 E7        30.00S
SOMERSET       PTSUNNY   90  70  51 N6        29.97S HX  95
MIDDLESBORO    CLOUDY    77  74  90 CALM      30.02R
MONTICELLO     CLEAR     88  77  69 SW3       30.00R HX 100
$$



USA.gov is the U.S. government's official web portal to all federal, state and local government web resources and services.